Granite Falls, MN

8:52 PM CST on December 09, 2019 (GMT -0600)
Granite Falls

Weather History for KGDB - October, 2019

Change the Weather History Date:

Monday, October 14, 2019

  Actual Average (KMVE) Record (KMVE)
Temperature  
Mean Temperature 40 °F -  
Max Temperature 54 °F 62 °F 84 °F (1958)
Min Temperature 27 °F 36 °F 26 °F (1983)
Degree Days  
Heating Degree Days 24    
Moisture  
Dew Point 32 °F    
Average Humidity 76    
Maximum Humidity 96    
Minimum Humidity 50    
Precipitation  
Precipitation 0.00 in - - ()
Sea Level Pressure  
Sea Level Pressure 29.94 in    
Wind  
Wind Speed 5 mph (SE)    
Max Wind Speed 12 mph    
Max Gust Speed 17 mph    
Visibility 10 miles    
Events      
Averages and records for this station are not official NWS values.
T = Trace of Precipitation, MM = Missing Value Source: NWS Daily Summary

Daily Weather History Graph

Daily Weather History Graph

Search for Another Location

Airport or City:

Astronomy

Oct. 14, 2019 Rise Set
Actual Time 7:36 AM CDT 6:39 PM CDT
Civil Twilight 7:06 AM CDT 7:09 PM CDT
Nautical Twilight 6:32 AM CDT 7:42 PM CDT
Astronomical Twilight 5:58 AM CDT 8:16 PM CDT
Moon 7:29 PM CDT (10/14) 8:08 AM CDT (10/14)
Length of Visible Light 12h 02m
Length of Day
11h 03m
Full, 99% of the Moon is Illuminated
Oct 14
Full
Oct 21
Last Quarter
Oct 27
New
Nov 4
First Quarter
Nov 12
Full

Hourly Weather History & Observations

Time (CDT) Temp. Windchill Dew Point Humidity Pressure Visibility Wind Dir Wind Speed Gust Speed Precip Events Conditions
12:15 AM 30.0 °F 24.1 °F 28.4 °F 94% 29.98 in 10.0 mi WSW 5.8 mph - N/A   Clear
12:16 AM 30.0 °F 24.1 °F 28.4 °F 94% 29.98 in 10.0 mi WSW 5.8 mph - N/A   Clear
12:38 AM 29.3 °F 23.2 °F 27.9 °F 94% 29.98 in 10.0 mi WSW 5.8 mph - N/A   Clear
12:57 AM 28.9 °F 22.8 °F 27.5 °F 94% 29.99 in 10.0 mi WSW 5.8 mph - N/A   Clear
1:16 AM 28.9 °F 25.2 °F 27.7 °F 95% 29.99 in 10.0 mi WSW 3.5 mph - N/A   Clear
1:35 AM 28.4 °F 22.2 °F 27.1 °F 95% 29.99 in 10.0 mi WSW 5.8 mph - N/A   Clear
1:55 AM 28.8 °F 23.7 °F 27.3 °F 94% 30.00 in 10.0 mi WSW 4.6 mph - N/A   Clear
2:17 AM 28.9 °F 23.9 °F 27.3 °F 94% 30.00 in 10.0 mi WSW 4.6 mph - N/A   Clear
2:36 AM 28.4 °F 23.3 °F 27.1 °F 95% 30.01 in 10.0 mi SW 4.6 mph - N/A   Clear
2:55 AM 28.6 °F 23.5 °F 27.1 °F 94% 30.00 in 10.0 mi WSW 4.6 mph - N/A   Clear
2:56 AM 28.6 °F 23.5 °F 27.3 °F 95% 30.01 in 10.0 mi WSW 4.6 mph - N/A   Clear
3:15 AM 28.0 °F 24.2 °F 26.8 °F 95% 30.01 in 10.0 mi SW 3.5 mph - N/A   Clear
3:16 AM 28.0 °F 22.8 °F 27.0 °F 96% 30.01 in 10.0 mi SW 4.6 mph - N/A   Clear
3:38 AM 28.8 °F 23.7 °F 27.5 °F 95% 30.01 in 10.0 mi WSW 4.6 mph - N/A   Scattered Clouds
3:56 AM 28.4 °F 23.3 °F 27.0 °F 94% 30.01 in 10.0 mi WSW 4.6 mph - N/A   Clear
4:15 AM 28.6 °F 23.5 °F 27.1 °F 94% 30.01 in 10.0 mi WSW 4.6 mph - N/A   Clear
4:16 AM 28.6 °F 23.5 °F 27.1 °F 94% 30.01 in 10.0 mi WSW 4.6 mph - N/A   Clear
4:35 AM 27.9 °F 22.6 °F 26.6 °F 95% 30.01 in 10.0 mi SW 4.6 mph - N/A   Clear
4:36 AM 27.9 °F 22.6 °F 26.4 °F 94% 30.01 in 10.0 mi SW 4.6 mph - N/A   Clear
4:55 AM 27.5 °F 23.6 °F 26.4 °F 96% 30.01 in 10.0 mi SW 3.5 mph - N/A   Clear
4:59 AM 27.7 °F 22.4 °F 26.6 °F 96% 30.01 in 10.0 mi SW 4.6 mph - N/A   Clear
5:18 AM 28.4 °F 23.3 °F 27.0 °F 94% 30.01 in 10.0 mi SSW 4.6 mph - N/A   Clear
5:35 AM 28.0 °F 24.2 °F 26.6 °F 94% 30.02 in 10.0 mi SSW 3.5 mph - N/A   Clear
5:55 AM 28.2 °F 24.4 °F 26.6 °F 94% 30.01 in 10.0 mi SSW 3.5 mph - N/A   Clear
5:56 AM 28.0 °F 24.2 °F 26.4 °F 94% 30.01 in 10.0 mi SSW 3.5 mph - N/A   Clear
6:15 AM 28.8 °F 25.0 °F 27.1 °F 94% 30.02 in 10.0 mi SSW 3.5 mph - N/A   Clear
6:16 AM 28.8 °F 25.0 °F 27.1 °F 94% 30.02 in 10.0 mi SSW 3.5 mph - N/A   Clear
6:38 AM 28.0 °F 24.2 °F 26.4 °F 94% 30.02 in 7.0 mi SSW 3.5 mph - N/A   Clear
6:57 AM 28.0 °F - 26.4 °F 94% 30.01 in 10.0 mi Calm Calm - N/A   Clear
7:16 AM 27.3 °F - 25.7 °F 94% 30.01 in 7.0 mi Calm Calm - N/A   Clear
7:35 AM 27.5 °F - 25.9 °F 94% 30.01 in 10.0 mi Calm Calm - N/A   Clear
7:36 AM 27.5 °F - 25.7 °F 93% 30.01 in 10.0 mi Calm Calm - N/A   Clear
7:55 AM 27.0 °F 23.0 °F 25.3 °F 94% 30.01 in 10.0 mi South 3.5 mph - N/A   Clear
8:35 AM 30.6 °F 27.1 °F 28.8 °F 93% 30.02 in 7.0 mi South 3.5 mph - N/A   Clear
8:55 AM 32.0 °F - 30.4 °F 94% 30.02 in 10.0 mi Calm Calm - N/A   Clear
8:56 AM 32.0 °F - 30.4 °F 94% 30.02 in 10.0 mi Calm Calm - N/A   Clear
9:15 AM 33.6 °F - 31.3 °F 91% 30.01 in 10.0 mi Calm Calm - N/A   Clear
9:16 AM 33.8 °F - 31.5 °F 91% 30.01 in 10.0 mi Calm Calm - N/A   Clear
9:39 AM 36.1 °F - 32.5 °F 87% 30.02 in 10.0 mi Calm Calm - N/A   Clear
9:56 AM 36.9 °F - 32.7 °F 85% 30.02 in 10.0 mi Calm Calm - N/A   Clear
10:16 AM 39.0 °F 35.7 °F 33.3 °F 80% 30.02 in 10.0 mi SSE 4.6 mph - N/A   Clear
10:35 AM 41.0 °F 37.1 °F 33.6 °F 75% 30.02 in 10.0 mi SSE 5.8 mph - N/A   Clear
10:55 AM 43.0 °F 38.8 °F 33.6 °F 70% 30.02 in 10.0 mi South 6.9 mph - N/A   Clear
10:59 AM 43.0 °F 39.5 °F 32.9 °F 68% 30.02 in 10.0 mi South 5.8 mph - N/A   Clear
11:17 AM 43.9 °F 39.9 °F 33.1 °F 66% 30.01 in 10.0 mi SSE 6.9 mph - N/A   Clear
11:36 AM 44.6 °F 41.4 °F 32.9 °F 64% 30.01 in 10.0 mi SSE 5.8 mph - N/A   Clear
11:55 AM 45.7 °F 42.7 °F 33.3 °F 62% 30.00 in 10.0 mi SSW 5.8 mph - N/A   Clear
11:56 AM 45.7 °F 43.4 °F 33.3 °F 62% 30.00 in 10.0 mi South 4.6 mph - N/A   Clear
12:15 PM 46.4 °F 42.4 °F 32.9 °F 59% 29.99 in 7.0 mi SE 8.1 mph - N/A   Clear
12:37 PM 47.5 °F - 33.3 °F 58% 29.98 in 10.0 mi ESE 3.5 mph - N/A   Clear
12:56 PM 48.0 °F - 33.3 °F 57% 29.98 in 7.0 mi SE 10.4 mph - N/A   Clear
1:15 PM 49.1 °F - 34.0 °F 56% 29.97 in 10.0 mi SE 6.9 mph - N/A   Clear
1:16 PM 49.1 °F - 33.8 °F 56% 29.96 in 10.0 mi ESE 6.9 mph - N/A   Clear
1:35 PM 50.5 °F - 34.7 °F 55% 29.95 in 10.0 mi SSE 5.8 mph - N/A   Clear
1:36 PM 50.5 °F - 34.9 °F 55% 29.95 in 10.0 mi SE 5.8 mph - N/A   Clear
1:59 PM 50.9 °F - 34.9 °F 54% 29.94 in 10.0 mi SE 5.8 mph - N/A   Clear
2:16 PM 52.0 °F - 35.1 °F 53% 29.93 in 7.0 mi SE 10.4 mph - N/A   Clear
2:36 PM 52.3 °F - 34.7 °F 51% 29.92 in 10.0 mi SE 6.9 mph - N/A   Clear
2:55 PM 53.1 °F - 35.4 °F 51% 29.91 in 10.0 mi ESE 8.1 mph - N/A   Clear
3:15 PM 52.7 °F - 35.1 °F 51% 29.90 in 7.0 mi SE 6.9 mph - N/A   Clear
3:19 PM 53.1 °F - 35.4 °F 51% 29.90 in 7.0 mi SE 8.1 mph - N/A   Clear
3:38 PM 54.0 °F - 35.6 °F 50% 29.89 in 10.0 mi ESE 9.2 mph - N/A   Clear
3:55 PM 53.6 °F - 36.3 °F 52% 29.88 in 10.0 mi ESE 6.9 mph - N/A   Clear
4:15 PM 54.1 °F - 36.5 °F 51% 29.87 in 10.0 mi East 9.2 mph - N/A   Clear
4:16 PM 54.1 °F - 36.5 °F 51% 29.87 in 10.0 mi East 9.2 mph - N/A   Clear
4:35 PM 54.1 °F - 36.5 °F 51% 29.86 in 7.0 mi East 9.2 mph - N/A   Clear
4:36 PM 54.1 °F - 36.5 °F 51% 29.86 in 7.0 mi East 10.4 mph 16.1 mph N/A   Clear
4:58 PM 54.0 °F - 37.0 °F 53% 29.86 in 7.0 mi ESE 10.4 mph - N/A   Clear
5:16 PM 52.9 °F - 36.5 °F 54% 29.86 in 10.0 mi ESE 11.5 mph 17.3 mph N/A   Clear
5:35 PM 52.2 °F - 37.0 °F 56% 29.86 in 7.0 mi East 8.1 mph - N/A   Clear
5:36 PM 52.3 °F - 37.0 °F 56% 29.86 in 7.0 mi East 8.1 mph - N/A   Clear
5:55 PM 52.3 °F - 37.2 °F 56% 29.86 in 7.0 mi East 5.8 mph - N/A   Clear
5:56 PM 52.3 °F - 37.2 °F 56% 29.86 in 7.0 mi East 6.9 mph - N/A   Clear
6:15 PM 51.1 °F - 37.4 °F 60% 29.86 in 10.0 mi East 4.6 mph - N/A   Clear
6:37 PM 49.1 °F - 37.4 °F 64% 29.87 in 10.0 mi ENE 4.6 mph - N/A   Clear
6:55 PM 47.3 °F - 36.9 °F 67% 29.87 in 10.0 mi ENE 6.9 mph - N/A   Clear
7:15 PM 46.6 °F - 37.0 °F 69% 29.87 in 10.0 mi NE 5.8 mph - N/A   Clear
7:16 PM 46.4 °F 43.5 °F 37.0 °F 70% 29.87 in 10.0 mi NE 5.8 mph - N/A   Clear
7:35 PM 44.1 °F 40.1 °F 36.9 °F 76% 29.87 in 10.0 mi NE 6.9 mph - N/A   Clear
7:36 PM 44.2 °F 40.3 °F 36.9 °F 75% 29.87 in 10.0 mi ENE 6.9 mph - N/A   Clear
7:58 PM 46.0 °F 43.1 °F 36.7 °F 70% 29.87 in 10.0 mi ENE 5.8 mph - N/A   Clear
8:17 PM 45.9 °F 42.9 °F 36.7 °F 70% 29.87 in 10.0 mi ENE 5.8 mph - N/A   Clear
8:36 PM 45.5 °F 42.5 °F 36.5 °F 71% 29.86 in 10.0 mi ENE 5.8 mph - N/A   Clear
8:55 PM 45.0 °F 41.2 °F 36.1 °F 71% 29.86 in 10.0 mi East 6.9 mph - N/A   Clear
8:56 PM 45.0 °F 41.8 °F 36.1 °F 71% 29.86 in 10.0 mi East 5.8 mph - N/A   Clear
9:15 PM 44.8 °F 39.9 °F 35.8 °F 71% 29.85 in 10.0 mi ENE 9.2 mph - N/A   Clear
9:37 PM 44.6 °F 40.2 °F 36.0 °F 72% 29.85 in 10.0 mi ENE 8.1 mph - N/A   Clear
9:56 PM 44.1 °F 39.0 °F 35.8 °F 73% 29.84 in 10.0 mi ENE 9.2 mph - N/A   Clear
10:16 PM 43.9 °F 39.3 °F 35.8 °F 73% 29.84 in 10.0 mi ENE 8.1 mph - N/A   Clear
10:35 PM 43.7 °F 39.1 °F 35.8 °F 74% 29.83 in 10.0 mi East 8.1 mph - N/A   Clear
10:36 PM 43.7 °F 39.1 °F 35.8 °F 74% 29.83 in 10.0 mi ENE 8.1 mph - N/A   Clear
11:16 PM 43.7 °F 38.6 °F 36.0 °F 74% 29.82 in 10.0 mi ENE 9.2 mph - N/A   Mostly Cloudy
11:36 PM 44.2 °F 39.2 °F 36.1 °F 73% 29.81 in 10.0 mi NE 9.2 mph - N/A   Mostly Cloudy
11:55 PM 44.6 °F 40.7 °F 36.5 °F 73% 29.81 in 10.0 mi NE 6.9 mph - N/A   Overcast
11:56 PM 44.6 °F 40.7 °F 36.5 °F 73% 29.81 in 10.0 mi NE 6.9 mph - N/A   Overcast